Location: Franzen
(48.6167°N, 15.3833°E)
Time: 12:33:42
(UTC+00:00)

Cosmos 1655 Rocket - Pass Details

Date: 02 August 2021
Orbit: 969 x 1007 km, 82.9° (Epoch: 25 September)

Event Time Altitude Azimuth Distance (km) Brightness Sun altitude
Exits shadow 22:22:55 - 237° (WSW) 3,040 6.4 -23.2°
Reaches altitude 10° 22:23:50 10° 242° (WSW) 2,774 6.2 -23.2°
Maximum altitude 22:28:56 25° 295° (WNW) 1,929 5.9 -23.4°
Drops below altitude 10° 22:34:04 10° 349° (N) 2,796 7.5 -23.5°
Sets 22:37:10 0° 3° (N) 3,751 8.4 -23.6°
